Regional Weather Roundup
Issued by NWS

Home | Current Version | Previous Version | Text Only | Print | Product List | Glossary On
Versions: 1 2 3 4 5 6 7 8 9 10 11 12 13 14 15 16 17 18 19 20 21 22 23 24 25 26 27 28 29 30 31 32 33 34 35 36 37 38 39 40 41 42 43 44 45 46 47 48 49 50
000
ASUS44 KFWD 221910
RWRTX
NORTH TEXAS HOURLY WEATHER ROUNDUP
NATIONAL WEATHER SERVICE FORT WORTH TX
100 PM CST MON JAN 22 2018

NOTE: "FAIR" INDICATES FEW OR NO CLOUDS BELOW 12,000 FEET WITH NO
SIGNIFICANT WEATHER AND/OR OBSTRUCTIONS TO VISIBILITY.

TXZ118-119-222000-
DALLAS/FORT WORTH METROPLEX

CITY           SKY/WX    TMP DP  RH WIND       PRES   REMARKS
DFW AIRPORT    FAIR      59  20  22 W24G32    29.99F
DALLAS LOVE    FAIR      59  22  24 W17G28    29.99F
FTW MEACHAM    FAIR      59  20  22 NW23G38   30.01F
DAL-EXECUTIVE  FAIR      69  21  16 W24G36    29.99F
FTW-ALLIANCE   FAIR      58  20  22 NW23G30   30.00F
FTW-NAS-JRB    FAIR      59  18  20 W24G30    30.02F
FTW-SPINKS     SUNNY     59  19  21 W28G35    30.04F
ARLINGTON      FAIR      57  18  21 W16G35    30.00F
GRAND PRAIRIE  SUNNY     57  18  21 W15G35    30.03F
ADDISON        SUNNY     55  21  26 W21G30    30.00F
MESQUITE       SUNNY     57  19  23 W23G35    30.00F
LANCASTER      FAIR      58  22  25 W16G25    30.02F
$$

TXZ091>094-102>105-117-120-121-131>134-222000-
NORTH CENTRAL TEXAS

CITY           SKY/WX    TMP DP  RH WIND       PRES   REMARKS
SHRMAN/DENISON FAIR      54  24  31 W26G33    29.98F
GAINESVILLE    FAIR      54  20  27 NW28G35   30.01F
BOWIE          FAIR      53  21  28 W20G33    30.02F
BRIDGEPORT     FAIR      55  21  26 NW18G28   30.05F
DECATUR        FAIR      55  19  25 W17G32    29.99F
DENTON         FAIR      57  22  25 NW28G35   30.00F
MCKINNEY       FAIR      55  26  32 NW24G36   29.99F
BONHAM         FAIR      53  24  32 W21G32    29.95F
GREENVILLE     FAIR      57  25  28 W18G30    29.99F
ROCKWALL       FAIR      56  25  29 W20G32    30.00F
TERRELL        FAIR      58  25  28 W15G31    29.99F
WAXAHACHIE     FAIR      58  25  27 NW23G31   30.02F
CLEBURNE       FAIR      57  18  21 W26G35    30.04F
GRANBURY       FAIR      60  18  19 W24G32    30.05F
$$

TXZ083>090-098>101-113>116-127>130-139>142-154-155-222000-
WESTERN NORTH TEXAS

CITY           SKY/WX    TMP DP  RH WIND       PRES   REMARKS
WICHITA FALLS  FAIR      55  20  25 NW22G35   30.02F
WF-KICKAPOO    FAIR      53  20  27 NW14G32   30.06F
VERNON         FAIR      55  11  17 NW29G37   30.05F
ABILENE        FAIR      54  16  22 NW17G25   30.10F
ABILENE-DYESS  FAIR      55  17  22 NW21G28   30.11F
GRAHAM           N/A     56  19  23 W22G32    30.06F
BRECKENRIDGE   FAIR      58  15  18 NW23G33   30.08F
CISCO          FAIR      55  14  19 NW20G31   30.09F
EASTLAND       FAIR      56  15  19 NW24G32   30.07F
RANGER         FAIR      55  18  22 NW22G29   30.06F
MINERAL WELLS  FAIR      57  16  20 W26G38    30.03F
STEPHENVILLE   FAIR      58  15  18 NW20G29   30.09F
COMANCHE       FAIR      57  20  23 NW20G29   30.09F
COLEMAN        FAIR      56  17  22 NW18      30.11F
$$

TXZ143>147-156>162-174-175-222000-
CENTRAL TEXAS

CITY           SKY/WX    TMP DP  RH WIND       PRES   REMARKS
WACO           FAIR      61  20  20 W24G32    30.06F
WACO-TSTC      SUNNY     63  19  19 W23G30    30.06F
WACO-MCGREGOR  FAIR      59  23  25 NW18G26   30.07F
CORSICANA      FAIR      58  27  30 W17G28    30.04F
MEXIA          FAIR      58  24  27 W20G26    30.06F
HEARNE         FAIR      59  27  29 NW12G22   30.10F
CAMERON        FAIR      61  25  25 NW15G28   30.09F
TEMPLE         FAIR      61  23  23 NW21      30.09F
KILLEEN        FAIR      60  18  19 W20       30.07F
KILLEEN-SKYLRK FAIR      60  20  21 NW16G26   30.09F
FORT HOOD      FAIR      60  18  19 NW22G29   30.04F
GATESVILLE     FAIR      59  18  20 NW14G28   30.09F
HAMILTON       FAIR      59  20  22 NW26G35   30.08F
LAMPASAS       FAIR      58  19  21 NW10G25   30.08F
$$

TXZ095>097-106>112-122>126-135>138-148>153-164>167-222000-
EAST TEXAS

CITY           SKY/WX    TMP DP  RH WIND       PRES   REMARKS
PARIS          FAIR      52  30  43 W23G32    29.93F
SULPHUR SPRNGS FAIR      55  28  35 W22G29    29.99F
MOUNT PLEASANT FAIR      54  29  37 W15G29    29.97F
GILMER         FAIR      56  28  33 W10       29.96F
MINEOLA        FAIR      55  27  33 W18G26    29.98F
TYLER          FAIR      58  24  27 NW21G28   29.99F
LONGVIEW       FAIR      58  32  37 W18G24    29.96F
MARSHALL       FAIR      56  25  29 W10G16    29.98F
ATHENS         FAIR      52  23  32 W10G22    30.00F
PALESTINE      FAIR      57  25  28 W17G28    30.05F
JACKSONVILLE   FAIR      58  26  29 W17       30.02F
CENTER         FAIR      60  22  22 W18G26    30.00F
NACOGDOCHES    FAIR      61  27  27 NW20G28   30.01F
LUFKIN         FAIR      61  25  25 NW13G24   30.01F
$$

SUPPLEMENTAL OBSERVATIONS (NWS FORT WORTH AREA)

CITY           SKY/WX    TMP DP  RH WIND       PRES   REMARKS
CADDO GRASSLND   N/A     54  25  32 W16G26      N/A
PAT MAYSE LAKE   N/A     50  25  37 SW22        N/A
GREENVILLE       N/A     55  27  33 W23G29      N/A
CEDAR HILL       N/A     57  21  24 NW10G22     N/A
LBJ GRASSLAND    N/A     54  19  26 W20G32      N/A
POSSUM KINGDOM   N/A     57  19  23 NW23G35     N/A
GRANBURY         N/A     59  18  20 NW28G35     N/A
TEMPLE           N/A     61  25  25 NW21G30     N/A
$$

SUPPLEMENTAL OBSERVATIONS (NWS NORMAN AREA)

CITY           SKY/WX    TMP DP  RH WIND       PRES   REMARKS
GOODLETT         N/A     54  15  21 NW29G39   30.05F
ODELL            N/A     53  18  25 NW26G35   30.04F
CROWELL          N/A     55  17  23 W21       30.07F
KNOX CITY        N/A     57  12  17 NW28G39   30.10F
SEYMOUR          N/A     55  16  21 NW28G36   30.08S
MILLERS CREEK    N/A     55  18  22 NW26G33     N/A
$$

SUPPLEMENTAL OBSERVATIONS (NWS SAN ANGELO AREA)

CITY           SKY/WX    TMP DP  RH WIND       PRES   REMARKS
WEINERT          N/A     56  15  20 NW22G29   30.10F
HASKELL          N/A     56  13  18 NW24G31   30.10F
THROCKMORTON     N/A     54  20  27 NW21      30.09F
STAMFORD         N/A     57  15  19 NW21      30.11F
CLYDE            N/A     54  16  22 NW24      30.11F
HAMBY            N/A     55  16  21 NW23G31     N/A
IVIE RESERVOIR   N/A     55  18  22 NW18G25     N/A
COLORADO BEND    N/A     57  16  19 W14         N/A
$$

SUPPLEMENTAL OBSERVATIONS (NWS SHREVEPORT AREA)

CITY           SKY/WX    TMP DP  RH WIND       PRES   REMARKS
CLARKSVILLE      N/A     54  28  37 W10         N/A
TEXARKANA        N/A     55  28  35 W10G22      N/A
LINDEN           N/A     57  28  33 W12G21      N/A
GILMER           N/A     57  28  33 W12G24      N/A
HENDERSON        N/A     59  28  31 W15G22      N/A
LUFKIN           N/A     63  27  25 MISG        N/A
N SABINE NF      N/A     63  28  27 MISG        N/A
S SABINE NF      N/A     64  28  25 N7          N/A
$$

SUPPLEMENTAL OBSERVATIONS ARE A COLLECTION OF AUTOMATED INSTRUMENTS
THAT ARE MAINTAINED BY A VARIETY OF FEDERAL AND STATE AGENCIES.
CERTAIN ELEMENTS...SUCH AS HUMIDITY VALUES AND SUSTAINED WIND
SPEEDS...MAY BE APPROXIMATED.





USA.gov is the U.S. government's official web portal to all federal, state and local government web resources and services.